• In Belarus
  • List of Countries
  • For 7 days
  • Water Temperature
  • Satellite Maps
  • Weather Map
  • Weather Widgets
  • user-avatar
    Login

    Hourly Weather Pokoradz

    Today, 19 October, Friday

    Time Temperature Precipitation Wind Pressure Humidity
    00:00 +14°C° 0 mm 1 mps 742 mmHg 73%
    01:00 +13°C° 0 mm 1 mps 742 mmHg 74%
    02:00 +13°C° 0 mm 1 mps 742 mmHg 76%
    03:00 +13°C° 0 mm 1 mps 742 mmHg 77%
    04:00 +12°C° 0 mm 2 mps 742 mmHg 79%
    05:00 +12°C° 0.1 mm 1 mps 742 mmHg 79%
    06:00 +12°C° 0.1 mm 1 mps 742 mmHg 80%
    07:00 +12°C° 0.1 mm 1 mps 743 mmHg 80%
    08:00 +13°C° 0 mm 2 mps 743 mmHg 75%
    09:00 +15°C° 0 mm 2 mps 743 mmHg 71%
    10:00 +16°C° 0 mm 2 mps 743 mmHg 66%
    11:00 +17°C° 0 mm 2 mps 743 mmHg 62%
    12:00 +18°C° 0 mm 2 mps 743 mmHg 58%
    13:00 +18°C° 0 mm 3 mps 743 mmHg 54%
    14:00 +18°C° 0 mm 3 mps 743 mmHg 57%
    15:00 +17°C° 0 mm 2 mps 743 mmHg 60%
    16:00 +17°C° 0 mm 2 mps 743 mmHg 62%
    17:00 +15°C° 0 mm 2 mps 743 mmHg 67%
    18:00 +14°C° 0 mm 2 mps 744 mmHg 72%
    19:00 +13°C° 0 mm 2 mps 744 mmHg 77%
    20:00 +13°C° 0 mm 2 mps 744 mmHg 81%
    21:00 +12°C° 0 mm 2 mps 744 mmHg 84%
    22:00 +12°C° 0 mm 2 mps 744 mmHg 87%
    23:00 +10°C° 0 mm 2 mps 745 mmHg 88%

    Tomorrow, 20 October, Saturday

    Time Temperature Precipitation Wind Pressure Humidity
    00:00 +10°C° 0 mm 2 mps 745 mmHg 90%
    01:00 +9°C° 0 mm 2 mps 745 mmHg 92%
    02:00 +9°C° 0 mm 2 mps 745 mmHg 92%
    03:00 +10°C° 0 mm 1 mps 745 mmHg 92%
    04:00 +10°C° 0 mm 1 mps 745 mmHg 92%
    05:00 +10°C° 0 mm 1 mps 745 mmHg 91%
    06:00 +10°C° 0 mm 1 mps 745 mmHg 91%
    07:00 +9°C° 0 mm 1 mps 746 mmHg 90%
    08:00 +10°C° 0 mm 2 mps 746 mmHg 81%
    09:00 +12°C° 0 mm 2 mps 746 mmHg 72%
    10:00 +14°C° 0 mm 2 mps 746 mmHg 63%
    11:00 +14°C° 0 mm 2 mps 746 mmHg 63%
    12:00 +14°C° 0 mm 2 mps 746 mmHg 62%
    13:00 +12°C° 0 mm 3 mps 746 mmHg 62%
    14:00 +13°C° 0 mm 2 mps 746 mmHg 64%
    15:00 +13°C° 0 mm 2 mps 746 mmHg 66%
    16:00 +12°C° 0 mm 2 mps 746 mmHg 68%
    17:00 +10°C° 0 mm 2 mps 746 mmHg 71%
    18:00 +10°C° 0 mm 2 mps 746 mmHg 75%
    19:00 +9°C° 0 mm 3 mps 746 mmHg 78%
    20:00 +9°C° 0 mm 3 mps 746 mmHg 78%
    21:00 +8°C° 0 mm 3 mps 746 mmHg 78%
    22:00 +8°C° 0 mm 3 mps 747 mmHg 78%
    23:00 +7°C° 0 mm 3 mps 746 mmHg 78%

    Day after tomorrow, 21 October, Sunday

    Time Temperature Precipitation Wind Pressure Humidity
    00:00 +7°C° 0 mm 3 mps 746 mmHg 79%
    01:00 +5°C° 0 mm 3 mps 746 mmHg 80%
    02:00 +5°C° 0 mm 3 mps 746 mmHg 82%
    03:00 +5°C° 0 mm 3 mps 746 mmHg 83%
    04:00 +4°C° 0 mm 3 mps 746 mmHg 85%
    05:00 +4°C° 0 mm 3 mps 746 mmHg 88%
    06:00 +4°C° 0 mm 3 mps 746 mmHg 90%
    07:00 +4°C° 0 mm 3 mps 746 mmHg 92%
    08:00 +7°C° 0 mm 3 mps 746 mmHg 85%
    09:00 +7°C° 0 mm 4 mps 746 mmHg 78%
    10:00 +10°C° 0 mm 4 mps 746 mmHg 71%
    11:00 +10°C° 0.1 mm 4 mps 745 mmHg 68%
    12:00 +11°C° 0.1 mm 4 mps 745 mmHg 65%
    13:00 +11°C° 0.1 mm 4 mps 745 mmHg 62%
    14:00 +11°C° 0.2 mm 4 mps 745 mmHg 65%
    15:00 +10°C° 0.2 mm 4 mps 745 mmHg 67%
    16:00 +10°C° 0.2 mm 3 mps 745 mmHg 70%
    17:00 +9°C° 0.1 mm 3 mps 745 mmHg 74%
    18:00 +8°C° 0.1 mm 3 mps 745 mmHg 78%
    19:00 +7°C° 0.1 mm 2 mps 745 mmHg 82%
    20:00 +7°C° 0 mm 2 mps 745 mmHg 83%
    21:00 +6°C° 0 mm 2 mps 745 mmHg 85%
    22:00 +6°C° 0 mm 2 mps 745 mmHg 86%
    23:00 +6°C° 0 mm 1 mps 745 mmHg 87%

    22 October, Monday

    Time Temperature Precipitation Wind Pressure Humidity
    00:00 +6°C° 0 mm 1 mps 745 mmHg 89%
    01:00 +6°C° 0 mm 1 mps 745 mmHg 90%
    02:00 +4°C° 0 mm 0 mps 745 mmHg 90%
    03:00 +4°C° 0 mm 0 mps 745 mmHg 91%
    04:00 +4°C° 0 mm 0 mps 745 mmHg 92%
    05:00 +4°C° 0 mm 0 mps 745 mmHg 91%
    06:00 +5°C° 0 mm 1 mps 745 mmHg 91%
    07:00 +5°C° 0 mm 1 mps 746 mmHg 91%
    08:00 +7°C° 0 mm 1 mps 746 mmHg 82%
    09:00 +9°C° 0 mm 1 mps 746 mmHg 74%
    10:00 +10°C° 0 mm 2 mps 746 mmHg 65%
    11:00 +10°C° 0 mm 2 mps 745 mmHg 60%
    12:00 +12°C° 0 mm 2 mps 745 mmHg 55%
    13:00 +12°C° 0 mm 3 mps 744 mmHg 50%
    14:00 +11°C° 0 mm 3 mps 744 mmHg 53%
    15:00 +12°C° 0 mm 2 mps 744 mmHg 56%
    16:00 +10°C° 0 mm 2 mps 743 mmHg 59%
    17:00 +9°C° 0.2 mm 2 mps 743 mmHg 65%
    18:00 +9°C° 0.2 mm 3 mps 743 mmHg 71%
    19:00 +8°C° 0.2 mm 3 mps 743 mmHg 78%
    20:00 +7°C° 0.7 mm 4 mps 744 mmHg 79%
    21:00 +7°C° 0.7 mm 4 mps 744 mmHg 81%
    22:00 +7°C° 0.7 mm 5 mps 744 mmHg 83%
    23:00 +7°C° 0.3 mm 5 mps 744 mmHg 81%

    23 October, Tuesday

    Time Temperature Precipitation Wind Pressure Humidity
    00:00 +6°C° 0.3 mm 5 mps 744 mmHg 79%
    01:00 +6°C° 0.3 mm 4 mps 744 mmHg 78%
    02:00 +5°C° 0 mm 4 mps 744 mmHg 79%
    03:00 +5°C° 0 mm 4 mps 744 mmHg 81%
    04:00 +4°C° 0 mm 4 mps 744 mmHg 82%
    05:00 +4°C° 0 mm 4 mps 744 mmHg 84%
    06:00 +4°C° 0 mm 4 mps 744 mmHg 85%
    07:00 +4°C° 0 mm 3 mps 744 mmHg 86%
    08:00 +5°C° 0 mm 4 mps 744 mmHg 81%
    09:00 +6°C° 0 mm 4 mps 744 mmHg 76%
    10:00 +7°C° 0 mm 5 mps 744 mmHg 70%
    11:00 +7°C° 0 mm 5 mps 743 mmHg 67%
    12:00 +7°C° 0 mm 5 mps 743 mmHg 64%
    13:00 +8°C° 0 mm 5 mps 742 mmHg 60%
    14:00 +7°C° 0 mm 5 mps 742 mmHg 65%
    15:00 +7°C° 0 mm 5 mps 741 mmHg 69%
    16:00 +7°C° 0 mm 5 mps 741 mmHg 73%
    17:00 +7°C° 0 mm 5 mps 740 mmHg 74%
    18:00 +7°C° 0 mm 5 mps 739 mmHg 74%
    19:00 +7°C° 0 mm 6 mps 738 mmHg 75%
    20:00 +7°C° 0.1 mm 6 mps 737 mmHg 76%
    21:00 +5°C° 0.1 mm 7 mps 736 mmHg 76%
    22:00 +5°C° 0.1 mm 7 mps 735 mmHg 77%
    23:00 +5°C° 0.7 mm 8 mps 734 mmHg 79%

    24 October, Wednesday

    Time Temperature Precipitation Wind Pressure Humidity
    00:00 +5°C° 0.7 mm 8 mps 732 mmHg 81%
    01:00 +5°C° 0.7 mm 8 mps 731 mmHg 83%
    02:00 +6°C° 2.1 mm 9 mps 730 mmHg 85%
    03:00 +6°C° 2.1 mm 9 mps 728 mmHg 86%
    04:00 +6°C° 2.1 mm 9 mps 727 mmHg 88%
    05:00 +7°C° 1.5 mm 9 mps 726 mmHg 86%
    06:00 +7°C° 1.5 mm 9 mps 726 mmHg 84%
    07:00 +8°C° 1.5 mm 9 mps 725 mmHg 82%
    08:00 +8°C° 0.5 mm 9 mps 726 mmHg 79%
    09:00 +8°C° 0.5 mm 9 mps 726 mmHg 75%
    10:00 +8°C° 0.5 mm 9 mps 727 mmHg 71%
    11:00 +8°C° 0.2 mm 9 mps 727 mmHg 67%
    12:00 +8°C° 0.2 mm 9 mps 728 mmHg 62%
    13:00 +7°C° 0.2 mm 10 mps 728 mmHg 57%
    14:00 +7°C° 0.1 mm 9 mps 729 mmHg 59%
    15:00 +6°C° 0.1 mm 8 mps 730 mmHg 60%
    16:00 +5°C° 0.1 mm 8 mps 730 mmHg 62%
    17:00 +4°C° 0.1 mm 7 mps 731 mmHg 64%
    18:00 +4°C° 0.1 mm 7 mps 732 mmHg 66%
    19:00 +3°C° 0.1 mm 7 mps 733 mmHg 68%
    20:00 +3°C° 0 mm 7 mps 733 mmHg 69%
    21:00 +3°C° 0 mm 6 mps 733 mmHg 71%
    22:00 +2°C° 0 mm 6 mps 734 mmHg 73%
    23:00 +2°C° 0 mm 6 mps 734 mmHg 74%
    Show more